Weather History for Tallahassee, FL

Change the Weather History Date:

Friday, September 13, 2013

  Actual Average Record
Temperature  
Mean Temperature 82 °F 79 °F  
Max Temperature 95 °F 89 °F 99 °F (1991)
Min Temperature 68 °F 69 °F 57 °F (1969)
Degree Days  
Heating Degree Days 0    
Month to date heating degree days 0  
Since 1 July heating degree days 0  
Cooling Degree Days 17    
Month to date cooling degree days 227  
Year to date cooling degree days 2263  
Growing Degree Days 32 (Base 50)    
Moisture  
Dew Point 67 °F    
Average Humidity 63    
Maximum Humidity 90    
Minimum Humidity 36    
Precipitation  
Precipitation 0.00 in 0.17 in 5.86 in (1903)
Month to date precipitation 1.65 2.24  
Year to date precipitation 54.94 46.15  
Sea Level Pressure  
Sea Level Pressure 29.87 in    
Wind  
Wind Speed 2 mph (SW)    
Max Wind Speed 8 mph    
Max Gust Speed 12 mph    
Visibility 10 miles    
Events Fog    
T = Trace of Precipitation, MM = Missing Value Source: NWS Daily Summary

Daily Weather History Graph

Daily Weather History Graph

Search for Another Location

Airport:

Trip Planner

Search our weather history database for the weather conditions in past years. The results will help you decide how hot, cold, wet, or windy it might be!

Date:

Astronomy

Sep. 13, 2013 Rise Set
Actual Time 7:20 AM EDT 7:45 PM EDT
Civil Twilight 6:56 AM EDT 8:09 PM EDT
Nautical Twilight 6:28 AM EDT 8:37 PM EDT
Astronomical Twilight 5:59 AM EDT 9:05 PM EDT
Moon 3:16 PM EDT (9/13) 1:07 AM EDT (9/13)
Length of Visible Light 13h 12m
Length of Day
12h 24m
First Quarter, 61% of the Moon is Illuminated
Sep 13
First Quarter
Sep 19
Full
Sep 26
Last Quarter
Oct 4
New
Oct 11
First Quarter

Hourly Weather History & Observations

Time (EDT) Temp. Heat Index Dew Point Humidity Pressure Visibility Wind Dir Wind Speed Gust Speed Precip Events Conditions
12:53 AM 75.0 °F - 70.0 °F 84% 29.93 in 10.0 mi Calm Calm - N/A   Clear
1:53 AM 75.9 °F - 70.0 °F 82% 29.91 in 10.0 mi Calm Calm - N/A   Clear
2:53 AM 73.9 °F - 70.0 °F 87% 29.91 in 10.0 mi Calm Calm - N/A   Clear
3:53 AM 72.0 °F - 68.0 °F 87% 29.90 in 10.0 mi Calm Calm - N/A   Clear
4:53 AM 72.0 °F - 66.9 °F 84% 29.88 in 10.0 mi Calm Calm - N/A   Clear
5:51 AM 71.6 °F - 66.2 °F 83% 29.88 in 10.0 mi Calm Calm - N/A Fog Patches of Fog
5:53 AM 71.1 °F - 66.9 °F 87% 29.88 in 10.0 mi Calm Calm - N/A Fog Patches of Fog
6:53 AM 69.1 °F - 66.0 °F 90% 29.89 in 10.0 mi Calm Calm - N/A Fog Patches of Fog
7:53 AM 70.0 °F - 66.9 °F 90% 29.90 in 10.0 mi Calm Calm - N/A Fog Patches of Fog
8:53 AM 75.0 °F - 70.0 °F 84% 29.91 in 10.0 mi Calm Calm - N/A   Clear
9:53 AM 82.9 °F 87.0 °F 70.0 °F 65% 29.92 in 10.0 mi NW 5.8 mph - N/A   Clear
10:53 AM 88.0 °F 91.4 °F 68.0 °F 51% 29.92 in 10.0 mi Variable 3.5 mph - N/A   Clear
11:53 AM 90.0 °F 90.0 °F 61.0 °F 38% 29.91 in 10.0 mi Calm Calm - N/A   Partly Cloudy
12:53 PM 91.0 °F 91.9 °F 63.0 °F 39% 29.90 in 10.0 mi WNW 5.8 mph - N/A   Scattered Clouds
1:53 PM 90.0 °F 90.3 °F 62.1 °F 39% 29.88 in 10.0 mi WSW 4.6 mph - N/A   Scattered Clouds
2:53 PM 93.0 °F 93.8 °F 62.1 °F 36% 29.85 in 10.0 mi SSW 4.6 mph - N/A   Scattered Clouds
3:53 PM 91.0 °F 91.5 °F 62.1 °F 38% 29.82 in 10.0 mi SSW 3.5 mph - N/A   Scattered Clouds
4:53 PM 91.9 °F 91.8 °F 61.0 °F 35% 29.81 in 10.0 mi South 3.5 mph - N/A   Scattered Clouds
5:53 PM 91.0 °F 91.9 °F 63.0 °F 39% 29.81 in 10.0 mi SSW 4.6 mph - N/A   Scattered Clouds
6:53 PM 88.0 °F 90.7 °F 66.9 °F 49% 29.81 in 10.0 mi South 4.6 mph - N/A   Scattered Clouds
7:53 PM 84.9 °F 88.8 °F 69.1 °F 59% 29.82 in 10.0 mi SSW 4.6 mph - N/A   Partly Cloudy
8:53 PM 82.0 °F 85.9 °F 70.0 °F 67% 29.84 in 10.0 mi South 4.6 mph - N/A   Partly Cloudy
9:53 PM 80.1 °F 83.2 °F 70.0 °F 71% 29.86 in 10.0 mi Calm Calm - N/A   Partly Cloudy
10:53 PM 78.1 °F - 70.0 °F 76% 29.85 in 10.0 mi Calm Calm - N/A   Partly Cloudy
11:53 PM 77.0 °F - 70.0 °F 79% 29.86 in 10.0 mi Calm Calm - N/A   Clear